Find Kosmos-2587

NORAD ID: 63290 Int'l Des: 2025-054 Owner: VVKOV Country: RU operational
LEOCIRCULARPOLAR

現在のビュー

3D地球を読み込み中...

Kosmos-2587について

説明を読み込み中...

次回通過

Passes for default location (London). Set your location on the main map for personalized predictions.

高度履歴

Loading altitude history...

軌道要素

1 63290U 25054C 26159.15122174 .00000042 00000-0 23370-3 0 9996
2 63290 82.4977 84.3327 0015886 34.6943 325.5170 12.42892729 55732
Epoch: Jun 8, 2026 • Age: 5 hours

現在のステータス

高度 1503.4 km
速度 7.12 km/s
衛星直下点 59.00°N, 127.15°W
打ち上げ日 Mar 16, 2025
運用期間 1.2 years
タイプ other

技術仕様

分類 Payload
質量 280.00 kg
乾燥質量 280.00 kg
総質量 280.00 kg
長さ 1.60 m
直径 0.80 m
スパン 7.00 m
形状 Cyl + Ant
製造者 RESH
バスタイプ Strela-3M
フェーズステータス In Orbit
所有者/国 VVKOV/RU

Most Searched